When you browse on this site, cookies collect data to enhance your experience and personalize the content and advertising you see.
Visit our Privacy Policy to learn more. By continuing to use the site, you agree to this use of cookies and data.
  • In Italy
  • List of Countries
  • For 7 days
  • Water Temperature
  • Weather Map
  • Weather Widgets
  • user-avatar
    Login

    Hourly Weather Zanzibar

    Today, 18 August, Sunday

    Time Temperature Precipitation Wind Pressure Humidity
    00:00 +25°C° 0 mm 5 mps 762 mmHg 82%
    01:00 +25°C° 0 mm 4 mps 762 mmHg 83%
    02:00 +25°C° 0 mm 4 mps 761 mmHg 84%
    03:00 +25°C° 0 mm 4 mps 761 mmHg 83%
    04:00 +25°C° 0 mm 4 mps 761 mmHg 83%
    05:00 +25°C° 0 mm 4 mps 761 mmHg 83%
    06:00 +25°C° 0 mm 4 mps 761 mmHg 83%
    07:00 +26°C° 0.1 mm 4 mps 762 mmHg 78%
    08:00 +27°C° 0.1 mm 4 mps 763 mmHg 73%
    09:00 +27°C° 0 mm 4 mps 763 mmHg 69%
    10:00 +28°C° 0.2 mm 4 mps 763 mmHg 65%
    11:00 +29°C° 0.2 mm 4 mps 763 mmHg 61%
    12:00 +30°C° 0.2 mm 5 mps 763 mmHg 57%
    13:00 +30°C° 0.1 mm 5 mps 762 mmHg 55%
    14:00 +32°C° 0.1 mm 6 mps 761 mmHg 53%
    15:00 +32°C° 0.1 mm 6 mps 760 mmHg 51%
    16:00 +30°C° 0 mm 7 mps 760 mmHg 56%
    17:00 +29°C° 0 mm 7 mps 760 mmHg 60%
    18:00 +28°C° 0 mm 7 mps 760 mmHg 65%
    19:00 +27°C° 0 mm 7 mps 760 mmHg 69%
    20:00 +26°C° 0 mm 6 mps 761 mmHg 73%
    21:00 +24°C° 0 mm 6 mps 761 mmHg 78%
    22:00 +25°C° 0 mm 5 mps 761 mmHg 79%
    23:00 +25°C° 0 mm 5 mps 762 mmHg 80%

    Tomorrow, 19 August, Monday

    Time Temperature Precipitation Wind Pressure Humidity
    00:00 +25°C° 0 mm 5 mps 762 mmHg 82%
    01:00 +25°C° 0 mm 4 mps 761 mmHg 82%
    02:00 +25°C° 0 mm 4 mps 761 mmHg 82%
    03:00 +25°C° 0 mm 4 mps 761 mmHg 82%
    04:00 +25°C° 0.1 mm 4 mps 761 mmHg 82%
    05:00 +23°C° 0.1 mm 4 mps 762 mmHg 82%
    06:00 +23°C° 0.1 mm 4 mps 762 mmHg 83%
    07:00 +26°C° 0.1 mm 4 mps 762 mmHg 78%
    08:00 +27°C° 0.1 mm 4 mps 763 mmHg 73%
    09:00 +28°C° 0.1 mm 4 mps 763 mmHg 68%
    10:00 +29°C° 0 mm 5 mps 763 mmHg 63%
    11:00 +30°C° 0 mm 5 mps 763 mmHg 58%
    12:00 +32°C° 0 mm 5 mps 763 mmHg 52%
    13:00 +32°C° 0 mm 6 mps 762 mmHg 52%
    14:00 +32°C° 0 mm 7 mps 761 mmHg 52%
    15:00 +32°C° 0 mm 7 mps 760 mmHg 52%
    16:00 +30°C° 0 mm 7 mps 760 mmHg 57%
    17:00 +29°C° 0 mm 7 mps 760 mmHg 63%
    18:00 +27°C° 0 mm 8 mps 760 mmHg 68%
    19:00 +27°C° 0 mm 7 mps 761 mmHg 72%
    20:00 +26°C° 0 mm 7 mps 761 mmHg 77%
    21:00 +24°C° 0 mm 7 mps 762 mmHg 81%
    22:00 +24°C° 0 mm 6 mps 762 mmHg 82%
    23:00 +24°C° 0 mm 6 mps 762 mmHg 84%

    Day after tomorrow, 20 August, Tuesday

    Time Temperature Precipitation Wind Pressure Humidity
    00:00 +25°C° 0 mm 5 mps 762 mmHg 85%
    01:00 +25°C° 0 mm 5 mps 762 mmHg 86%
    02:00 +23°C° 0 mm 4 mps 761 mmHg 87%
    03:00 +23°C° 0 mm 4 mps 761 mmHg 88%
    04:00 +25°C° 0.2 mm 4 mps 761 mmHg 87%
    05:00 +25°C° 0.2 mm 4 mps 762 mmHg 86%
    06:00 +25°C° 0.2 mm 4 mps 762 mmHg 85%
    07:00 +26°C° 0.1 mm 4 mps 763 mmHg 79%
    08:00 +27°C° 0.1 mm 4 mps 763 mmHg 74%
    09:00 +28°C° 0.1 mm 4 mps 764 mmHg 68%
    10:00 +29°C° 0 mm 5 mps 764 mmHg 64%
    11:00 +30°C° 0 mm 5 mps 763 mmHg 59%
    12:00 +32°C° 0 mm 5 mps 763 mmHg 54%
    13:00 +32°C° 0 mm 5 mps 762 mmHg 52%
    14:00 +33°C° 0 mm 6 mps 761 mmHg 50%
    15:00 +33°C° 0 mm 7 mps 761 mmHg 48%
    16:00 +30°C° 0 mm 7 mps 761 mmHg 54%
    17:00 +29°C° 0 mm 8 mps 761 mmHg 61%
    18:00 +28°C° 0 mm 8 mps 761 mmHg 67%
    19:00 +27°C° 0 mm 7 mps 761 mmHg 71%
    20:00 +26°C° 0 mm 7 mps 762 mmHg 75%
    21:00 +26°C° 0 mm 6 mps 762 mmHg 79%
    22:00 +26°C° 0 mm 6 mps 762 mmHg 81%
    23:00 +26°C° 0 mm 5 mps 762 mmHg 83%

    21 August, Wednesday

    Time Temperature Precipitation Wind Pressure Humidity
    00:00 +26°C° 0 mm 5 mps 762 mmHg 84%
    01:00 +25°C° 0 mm 5 mps 762 mmHg 85%
    02:00 +25°C° 0 mm 4 mps 762 mmHg 85%
    03:00 +25°C° 0 mm 4 mps 761 mmHg 86%
    04:00 +25°C° 0 mm 4 mps 761 mmHg 87%
    05:00 +25°C° 0 mm 4 mps 762 mmHg 87%
    06:00 +25°C° 0 mm 4 mps 762 mmHg 88%
    07:00 +26°C° 0 mm 4 mps 763 mmHg 84%
    08:00 +27°C° 0 mm 4 mps 763 mmHg 80%
    09:00 +27°C° 0 mm 5 mps 764 mmHg 75%
    10:00 +29°C° 0.1 mm 5 mps 764 mmHg 69%
    11:00 +30°C° 0.1 mm 5 mps 763 mmHg 63%
    12:00 +32°C° 0.1 mm 5 mps 763 mmHg 56%
    13:00 +32°C° 0.1 mm 7 mps 762 mmHg 56%
    14:00 +32°C° 0.1 mm 8 mps 762 mmHg 56%
    15:00 +32°C° 0.1 mm 9 mps 761 mmHg 55%
    16:00 +31°C° 0 mm 9 mps 761 mmHg 61%
    17:00 +29°C° 0 mm 9 mps 761 mmHg 67%
    18:00 +28°C° 0 mm 10 mps 761 mmHg 73%
    19:00 +27°C° 0 mm 9 mps 762 mmHg 74%
    20:00 +27°C° 0 mm 9 mps 762 mmHg 76%
    21:00 +27°C° 0 mm 9 mps 763 mmHg 77%
    22:00 +27°C° 0 mm 8 mps 763 mmHg 75%
    23:00 +27°C° 0 mm 8 mps 763 mmHg 72%

    22 August, Thursday

    Time Temperature Precipitation Wind Pressure Humidity
    00:00 +27°C° 0 mm 7 mps 763 mmHg 70%
    01:00 +27°C° 0 mm 6 mps 762 mmHg 70%
    02:00 +27°C° 0 mm 5 mps 762 mmHg 71%
    03:00 +27°C° 0 mm 5 mps 761 mmHg 71%
    04:00 +27°C° 0 mm 4 mps 762 mmHg 72%
    05:00 +26°C° 0 mm 4 mps 762 mmHg 72%
    06:00 +26°C° 0 mm 4 mps 762 mmHg 73%
    07:00 +27°C° 0.1 mm 4 mps 763 mmHg 70%
    08:00 +28°C° 0.1 mm 5 mps 763 mmHg 68%
    09:00 +29°C° 0.1 mm 5 mps 764 mmHg 65%
    10:00 +29°C° 0.3 mm 5 mps 763 mmHg 66%
    11:00 +29°C° 0.3 mm 6 mps 763 mmHg 67%
    12:00 +29°C° 0.3 mm 6 mps 763 mmHg 68%
    13:00 +29°C° 0.3 mm 6 mps 762 mmHg 66%
    14:00 +30°C° 0.3 mm 7 mps 761 mmHg 63%
    15:00 +30°C° 0.3 mm 7 mps 761 mmHg 60%
    16:00 +30°C° 0 mm 7 mps 761 mmHg 62%
    17:00 +29°C° 0 mm 7 mps 761 mmHg 65%
    18:00 +28°C° 0 mm 8 mps 761 mmHg 68%
    19:00 +28°C° 0 mm 8 mps 762 mmHg 70%
    20:00 +27°C° 0 mm 8 mps 762 mmHg 72%
    21:00 +27°C° 0 mm 8 mps 762 mmHg 74%
    22:00 +27°C° 0 mm 8 mps 762 mmHg 75%
    23:00 +27°C° 0 mm 7 mps 762 mmHg 76%

    23 August, Friday

    Time Temperature Precipitation Wind Pressure Humidity
    00:00 +27°C° 0 mm 7 mps 762 mmHg 77%
    01:00 +27°C° 0 mm 7 mps 762 mmHg 75%
    02:00 +27°C° 0 mm 7 mps 761 mmHg 74%
    03:00 +27°C° 0 mm 6 mps 761 mmHg 72%
    04:00 +27°C° 0 mm 6 mps 761 mmHg 72%
    05:00 +27°C° 0 mm 6 mps 761 mmHg 73%
    06:00 +27°C° 0 mm 6 mps 762 mmHg 74%
    07:00 +27°C° 0.3 mm 6 mps 762 mmHg 73%
    08:00 +28°C° 0.3 mm 6 mps 763 mmHg 73%
    09:00 +28°C° 0.3 mm 6 mps 763 mmHg 72%
    10:00 +27°C° 0.7 mm 6 mps 763 mmHg 77%
    11:00 +26°C° 0.7 mm 6 mps 763 mmHg 83%
    12:00 +26°C° 0.7 mm 6 mps 762 mmHg 88%
    13:00 +24°C° 1 mm 6 mps 762 mmHg 88%
    14:00 +24°C° 1 mm 6 mps 761 mmHg 87%
    15:00 +24°C° 1 mm 6 mps 761 mmHg 87%
    16:00 +24°C° 1.3 mm 7 mps 761 mmHg 87%
    17:00 +24°C° 1.3 mm 7 mps 761 mmHg 88%
    18:00 +24°C° 1.3 mm 7 mps 762 mmHg 88%
    19:00 +24°C° 0.7 mm 7 mps 762 mmHg 89%
    20:00 +24°C° 0.7 mm 6 mps 763 mmHg 89%
    21:00 +24°C° 0.7 mm 6 mps 763 mmHg 90%
    22:00 +24°C° 0.3 mm 6 mps 763 mmHg 89%
    23:00 +24°C° 0.3 mm 6 mps 763 mmHg 89%
    Show more